ProjectID,Date,Electric Generation,Electric Utility Import,Facility Electric Load
,YYYY-MM-DD,kW,kW,kW
7,2005-07-01,0.9265833333333333,0.0,0.9265833333333333
7,2005-07-02,0.9229583333333333,0.0,0.9229583333333333
7,2005-07-03,0.918875,0.0,0.918875
7,2005-07-04,0.9154166666666667,0.0,0.9154166666666667
7,2005-07-05,0.919375,0.0,0.919375
7,2005-07-06,0.917125,0.0,0.917125
7,2005-07-07,43.927458333333334,0.0,43.927458333333334
7,2005-07-08,69.02683333333333,0.0,69.02683333333333
7,2005-07-09,54.351416666666665,0.0,54.351416666666665
7,2005-07-10,53.16370833333334,0.0,53.16370833333334
7,2005-07-11,32.616875,0.0,32.616875
7,2005-07-12,25.764333333333337,0.0,25.764333333333337
7,2005-07-13,21.519958333333335,0.0,21.519958333333335
7,2005-07-14,55.05620833333333,0.0,55.05620833333333
7,2005-07-15,54.26345833333334,0.0,54.26345833333334
7,2005-07-16,54.556666666666665,0.0,54.556666666666665
7,2005-07-17,54.08658333333333,0.0,54.08658333333333
7,2005-07-18,51.783458333333336,0.0,51.783458333333336
7,2005-07-19,16.026416666666666,0.0,16.026416666666666
7,2005-07-20,14.454749999999999,0.0,14.454749999999999
7,2005-07-21,28.886875,0.0,28.886875
7,2005-07-22,49.57308333333333,0.0,49.57308333333333
7,2005-07-23,50.73970833333333,0.0,50.73970833333333
7,2005-07-24,52.09479166666667,0.0,52.09479166666667
7,2005-07-25,52.73254166666666,0.0,52.73254166666666
7,2005-07-26,50.87645833333334,0.0,50.87645833333334
7,2005-07-27,50.17366666666666,0.0,50.17366666666666
7,2005-07-28,27.88870833333333,0.0,27.88870833333333
7,2005-07-29,33.579458333333335,0.0,33.579458333333335
7,2005-07-30,53.22,0.0,53.22
7,2005-07-31,54.01725,0.0,54.01725
7,2005-08-01,52.83675,0.0,52.83675
7,2005-08-02,49.72579166666667,0.0,49.72579166666667
7,2005-08-03,49.681958333333334,0.0,49.681958333333334
7,2005-08-04,49.875875,0.0,49.875875
7,2005-08-05,48.69866666666667,0.0,48.69866666666667
7,2005-08-06,50.77345833333334,0.0,50.77345833333334
7,2005-08-07,51.591375,0.0,51.591375
7,2005-08-08,51.428041666666665,0.0,51.428041666666665
7,2005-08-09,51.66195833333333,0.0,51.66195833333333
7,2005-08-10,50.322624999999995,0.0,50.322624999999995
7,2005-08-11,48.847,0.0,48.847
7,2005-08-12,43.780125,0.0,43.780125
7,2005-08-13,14.659166666666666,0.0,14.659166666666666
7,2005-08-14,15.127249999999998,0.0,15.127249999999998
7,2005-08-15,10.171666666666667,0.0,10.171666666666667
7,2005-08-16,29.55441666666667,0.0,29.55441666666667
7,2005-08-17,46.264375,0.0,46.264375
7,2005-08-18,48.463750000000005,0.0,48.463750000000005
7,2005-08-19,48.669000000000004,0.0,48.669000000000004
7,2005-08-20,47.62958333333333,0.0,47.62958333333333
7,2005-08-21,36.64395833333334,0.0,36.64395833333334
7,2005-08-22,33.59345833333334,0.0,33.59345833333334
7,2005-08-23,47.87920833333334,0.0,47.87920833333334
7,2005-08-24,48.63879166666666,0.0,48.63879166666666
7,2005-08-25,49.56879166666667,0.0,49.56879166666667
7,2005-08-26,48.848749999999995,0.0,48.848749999999995
7,2005-08-27,48.111875,0.0,48.111875
7,2005-08-28,47.77491666666666,0.0,47.77491666666666
7,2005-08-29,50.173249999999996,0.0,50.173249999999996
7,2005-08-30,50.11358333333334,0.0,50.11358333333334
7,2005-08-31,49.40416666666667,0.0,49.40416666666667
7,2005-09-01,49.318958333333335,0.0,49.318958333333335
7,2005-09-02,49.77925,0.0,49.77925
7,2005-09-03,51.08641666666667,0.0,51.08641666666667
7,2005-09-04,52.12233333333333,0.0,52.12233333333333
7,2005-09-05,53.55883333333333,0.0,53.55883333333333
7,2005-09-06,53.74854166666666,0.0,53.74854166666666
7,2005-09-07,51.12504166666667,0.0,51.12504166666667
7,2005-09-08,52.865,0.0,52.865
7,2005-09-09,51.23137500000001,0.0,51.23137500000001
7,2005-09-10,53.07375,0.0,53.07375
7,2005-09-11,53.435833333333335,0.0,53.435833333333335
7,2005-09-12,51.547958333333334,0.0,51.547958333333334
7,2005-09-13,50.20075,0.0,50.20075
7,2005-09-14,51.08920833333334,0.0,51.08920833333334
7,2005-09-15,50.879124999999995,0.0,50.879124999999995
7,2005-09-16,37.729125,0.0,37.729125
7,2005-09-17,15.154791666666666,0.0,15.154791666666666
7,2005-09-18,13.667708333333332,0.0,13.667708333333332
7,2005-09-19,35.185583333333334,0.0,35.185583333333334
7,2005-09-20,50.207208333333334,0.0,50.207208333333334
7,2005-09-21,51.179249999999996,0.0,51.179249999999996
7,2005-09-22,51.419875,0.0,51.419875
7,2005-09-23,49.92666666666667,0.0,49.92666666666667
7,2005-09-24,54.558125,0.0,54.558125
7,2005-09-25,53.71245833333333,0.0,53.71245833333333
7,2005-09-26,51.79516666666667,0.0,51.79516666666667
7,2005-09-27,52.12008333333333,0.0,52.12008333333333
7,2005-09-28,53.926874999999995,0.0,53.926874999999995
7,2005-09-29,53.306333333333335,0.0,53.306333333333335
7,2005-09-30,56.80566666666667,0.0,56.80566666666667
7,2005-10-01,55.84258333333333,0.0,55.84258333333333
7,2005-10-02,54.853791666666666,0.0,54.853791666666666
7,2005-10-03,53.64366666666667,0.0,53.64366666666667
7,2005-10-04,53.927249999999994,0.0,53.927249999999994
7,2005-10-05,53.946666666666665,0.0,53.946666666666665
7,2005-10-06,52.89941666666667,0.0,52.89941666666667
7,2005-10-07,51.615125,0.0,51.615125
7,2005-10-08,45.865583333333326,0.0,45.865583333333326
7,2005-10-09,12.564875,0.0,12.564875
7,2005-10-10,10.869541666666668,0.0,10.869541666666668
7,2005-10-11,3.677208333333333,0.0,3.677208333333333
7,2005-10-12,33.589708333333334,0.0,33.589708333333334
7,2005-10-13,51.7345,0.0,51.7345
7,2005-10-14,51.864875000000005,0.0,51.864875000000005
7,2005-10-15,50.27525,0.0,50.27525
7,2005-10-16,51.857499999999995,0.0,51.857499999999995
7,2005-10-17,39.454375,0.0,39.454375
7,2005-10-18,54.778333333333336,0.0,54.778333333333336
7,2005-10-19,55.651875,0.0,55.651875
7,2005-10-20,56.575041666666664,0.0,56.575041666666664
7,2005-10-21,57.621541666666666,0.0,57.621541666666666
7,2005-10-22,54.023583333333335,0.0,54.023583333333335
7,2005-10-23,11.671208333333333,0.0,11.671208333333333
7,2005-10-24,34.522875,0.0,34.522875
7,2005-10-25,55.019625,0.0,55.019625
7,2005-10-26,59.622083333333336,0.0,59.622083333333336
7,2005-10-27,62.155499999999996,0.0,62.155499999999996
7,2005-10-28,58.09725,0.0,58.09725
7,2005-10-29,63.23104166666667,0.0,63.23104166666667
7,2005-10-30,58.93254166666667,0.0,58.93254166666667
7,2005-10-31,52.93879166666667,0.0,52.93879166666667
7,2005-11-01,24.86445833333333,,24.86445833333333
7,2005-11-02,0.398375,,0.398375
7,2005-11-03,0.3815,,0.3815
7,2005-11-04,0.3907083333333334,,0.3907083333333334
7,2005-11-05,0.542625,,0.542625
7,2005-11-06,0.39287500000000003,,0.39287500000000003
7,2005-11-07,0.39795833333333336,,0.39795833333333336
7,2005-11-08,37.305416666666666,,37.305416666666666
7,2005-11-09,59.05029166666667,,59.05029166666667
7,2005-11-10,60.58112499999999,,60.58112499999999
7,2005-11-11,63.35037500000001,,63.35037500000001
7,2005-11-12,61.161,,61.161
7,2005-11-13,59.28041666666667,,59.28041666666667
7,2005-11-14,57.20225,,57.20225
7,2005-11-15,55.607,,55.607
7,2005-11-16,55.969208333333334,,55.969208333333334
7,2005-11-17,58.398291666666665,,58.398291666666665
7,2005-11-18,58.468875,,58.468875
7,2005-11-19,58.432208333333335,,58.432208333333335
7,2005-11-20,58.43170833333334,,58.43170833333334
7,2005-11-21,44.566833333333335,249.29166666666666,293.8585
7,2005-11-22,58.375166666666665,542.4583333333334,600.8335000000001
7,2005-11-23,58.41441666666666,538.7916666666666,597.2060833333333
7,2005-11-24,52.877874999999996,483.4583333333333,536.3362083333333
7,2005-11-25,31.036666666666665,535.4166666666666,566.4533333333333
7,2005-11-26,58.338750000000005,470.5,528.83875
7,2005-11-27,58.44925,450.1666666666667,508.6159166666667
7,2005-11-28,57.546375000000005,503.7083333333333,561.2547083333333
7,2005-11-29,57.374208333333335,513.8333333333334,571.2075416666667
7,2005-11-30,57.16695833333333,509.0416666666667,566.208625
7,2005-12-01,58.430791666666664,521.75,580.1807916666667
7,2005-12-02,58.42195833333333,527.75,586.1719583333334
7,2005-12-03,58.39208333333334,492.1666666666667,550.55875
7,2005-12-04,58.43087499999999,485.875,544.305875
7,2005-12-05,58.40679166666666,563.625,622.0317916666667
7,2005-12-06,58.39362499999999,581.875,640.268625
7,2005-12-07,51.295625,668.7083333333334,720.0039583333333
7,2005-12-08,55.37466666666666,686.0833333333334,741.4580000000001
7,2005-12-09,53.59520833333334,663.0833333333334,716.6785416666667
7,2005-12-10,50.68891666666667,617.125,667.8139166666667
7,2005-12-11,45.60479166666667,604.7083333333334,650.313125
7,2005-12-12,49.232166666666664,633.2083333333334,682.4405
7,2005-12-13,56.73941666666667,645.125,701.8644166666667
7,2005-12-14,58.21720833333333,645.625,703.8422083333334
7,2005-12-15,57.84104166666666,637.0,694.8410416666667
7,2005-12-16,49.28229166666667,589.8333333333334,639.115625
7,2005-12-17,48.444375,533.0416666666666,581.4860416666667
7,2005-12-18,46.56245833333333,524.4583333333334,571.0207916666667
7,2005-12-19,49.713458333333335,608.25,657.9634583333334
7,2005-12-20,58.173125,639.0416666666666,697.2147916666667
7,2005-12-21,55.56716666666667,635.4583333333334,691.0255000000001
7,2005-12-22,55.81316666666667,630.375,686.1881666666667
7,2005-12-23,47.654666666666664,585.0,632.6546666666667
7,2005-12-24,38.339083333333335,500.375,538.7140833333333
7,2005-12-25,38.77170833333333,489.0833333333333,527.8550416666667
7,2005-12-26,37.346916666666665,501.5,538.8469166666666
7,2005-12-27,43.728166666666674,574.7916666666666,618.5198333333333
7,2005-12-28,38.103249999999996,571.125,609.22825
7,2005-12-29,31.856125000000002,571.625,603.481125
7,2005-12-30,37.312125,564.9166666666666,602.2287916666667
7,2005-12-31,40.795458333333336,519.7916666666666,560.587125
7,2006-01-01,38.54691666666667,490.7083333333333,529.2552499999999
7,2006-01-02,37.61920833333333,504.125,541.7442083333333
7,2006-01-03,54.00366666666667,594.4166666666666,648.4203333333332
7,2006-01-04,52.61154166666666,585.7083333333334,638.319875
7,2006-01-05,38.125166666666665,585.6666666666666,623.7918333333333
7,2006-01-06,38.15266666666667,578.7083333333334,616.861
7,2006-01-07,44.602291666666666,555.2916666666666,599.8939583333333
7,2006-01-08,39.01466666666666,531.2916666666666,570.3063333333333
7,2006-01-09,31.797583333333336,543.25,575.0475833333334
7,2006-01-10,32.95675,560.8333333333334,593.7900833333333
7,2006-01-11,30.658083333333334,582.2083333333334,612.8664166666667
7,2006-01-12,27.264875,574.5,601.764875
7,2006-01-13,16.972958333333334,506.6666666666667,523.639625
7,2006-01-14,0.1855416666666667,429.4583333333333,429.643875
7,2006-01-15,0.18575,457.4583333333333,457.6440833333333
7,2006-01-16,0.19745833333333332,491.625,491.8224583333333
7,2006-01-17,29.361083333333337,560.0,589.3610833333333
7,2006-01-18,54.48258333333334,595.0,649.4825833333333
7,2006-01-19,60.49216666666666,607.2916666666666,667.7838333333333
7,2006-01-20,57.7885,553.75,611.5385
7,2006-01-21,57.10008333333334,472.5416666666667,529.64175
7,2006-01-22,58.38583333333333,467.9166666666667,526.3025
7,2006-01-23,58.40329166666667,562.7916666666666,621.1949583333333
7,2006-01-24,58.409124999999996,573.9583333333334,632.3674583333334
7,2006-01-25,58.34470833333333,572.6666666666666,631.0113749999999
7,2006-01-26,58.36629166666666,605.8333333333334,664.1996250000001
7,2006-01-27,58.350458333333336,577.5416666666666,635.892125
7,2006-01-28,57.751083333333334,513.1666666666666,570.91775
7,2006-01-29,57.801375,491.5,549.301375
7,2006-01-30,56.55383333333333,534.0416666666666,590.5954999999999
7,2006-01-31,58.34575,583.125,641.47075
7,2006-02-01,58.36708333333333,567.4583333333334,625.8254166666667
7,2006-02-02,57.612875,570.2916666666666,627.9045416666667
7,2006-02-03,54.53466666666667,557.3333333333334,611.868
7,2006-02-04,53.506375,543.7083333333334,597.2147083333334
7,2006-02-05,0.41370833333333334,559.0833333333334,559.4970416666667
7,2006-02-06,31.475583333333333,583.9166666666666,615.39225
7,2006-02-07,58.359208333333335,560.3333333333334,618.6925416666667
7,2006-02-08,58.35783333333333,576.4166666666666,634.7745
7,2006-02-09,58.357499999999995,605.7916666666666,664.1491666666666
7,2006-02-10,58.34116666666667,585.9166666666666,644.2578333333333
7,2006-02-11,58.373625000000004,540.1666666666666,598.5402916666667
7,2006-02-12,58.37533333333334,530.9166666666666,589.2919999999999
7,2006-02-13,58.36183333333333,581.0833333333334,639.4451666666668
7,2006-02-14,58.41370833333334,604.4166666666666,662.830375
7,2006-02-15,57.97104166666667,569.875,627.8460416666667
7,2006-02-16,57.490583333333326,566.7916666666666,624.28225
7,2006-02-17,56.39058333333333,539.6666666666666,596.05725
7,2006-02-18,58.381875,498.5833333333333,556.9652083333333
7,2006-02-19,58.370958333333334,489.1666666666667,547.537625
7,2006-02-20,58.36208333333334,507.0833333333333,565.4454166666667
7,2006-02-21,58.365,561.2083333333334,619.5733333333334
7,2006-02-22,58.31912500000001,555.4166666666666,613.7357916666666
7,2006-02-23,57.94254166666667,562.125,620.0675416666667
7,2006-02-24,58.35345833333333,573.4166666666666,631.770125
7,2006-02-25,57.987,512.6666666666666,570.6536666666666
7,2006-02-26,58.34695833333333,501.4583333333333,559.8052916666667
7,2006-02-27,58.33595833333334,579.75,638.0859583333333
7,2006-02-28,58.3965,580.6666666666666,639.0631666666666
7,2006-03-01,58.3205,571.8333333333334,630.1538333333334
7,2006-03-02,55.27554166666667,611.25,666.5255416666666
7,2006-03-03,54.393708333333336,597.4583333333334,651.8520416666668
7,2006-03-04,54.125708333333336,555.1666666666666,609.292375
7,2006-03-05,47.361916666666666,532.875,580.2369166666666
7,2006-03-06,42.79445833333333,548.875,591.6694583333333
7,2006-03-07,38.93108333333333,559.2916666666666,598.2227499999999
7,2006-03-08,35.267916666666665,554.4583333333334,589.72625
7,2006-03-09,32.20708333333334,560.7916666666666,592.99875
7,2006-03-10,11.842208333333334,525.0833333333334,536.9255416666667
7,2006-03-11,0.0,470.0833333333333,470.0833333333333
7,2006-03-12,0.0,467.875,467.875
7,2006-03-13,17.27075,533.4583333333334,550.7290833333334
7,2006-03-14,27.6435,546.8333333333334,574.4768333333334
7,2006-03-15,54.059041666666666,544.3333333333334,598.392375
7,2006-03-16,67.85566666666666,543.375,611.2306666666667
7,2006-03-17,66.52754166666666,514.5416666666666,581.0692083333333
7,2006-03-18,68.085,468.5416666666667,536.6266666666667
7,2006-03-19,68.799125,455.7916666666667,524.5907916666667
7,2006-03-20,68.15083333333332,540.4166666666666,608.5675
7,2006-03-21,68.33879166666667,562.8333333333334,631.172125
7,2006-03-22,64.39233333333333,540.0,604.3923333333333
7,2006-03-23,43.391,550.5833333333334,593.9743333333333
7,2006-03-24,51.469875,502.9583333333333,554.4282083333333
7,2006-03-25,55.063291666666665,453.9166666666667,508.97995833333334
7,2006-03-26,54.490874999999996,442.25,496.740875
7,2006-03-27,53.43358333333333,496.5833333333333,550.0169166666667
7,2006-03-28,54.7245,514.8333333333334,569.5578333333334
7,2006-03-29,54.10916666666666,502.2083333333333,556.3175
7,2006-03-30,53.29054166666666,500.0833333333333,553.373875
7,2006-03-31,52.91916666666666,462.4583333333333,515.3774999999999
7,2006-04-01,49.77133333333333,431.5833333333333,481.3546666666666
7,2006-04-02,50.69708333333333,398.5833333333333,449.28041666666667
7,2006-04-03,53.14191666666667,446.5416666666667,499.68358333333333
7,2006-04-04,52.46754166666667,471.5416666666667,524.0092083333334
7,2006-04-05,54.63916666666666,505.375,560.0141666666667
7,2006-04-06,53.63641666666666,509.5416666666667,563.1780833333333
7,2006-04-07,51.958708333333334,485.6666666666667,537.6253750000001
7,2006-04-08,53.415708333333335,437.0,490.4157083333333
7,2006-04-09,53.831875,417.25,471.08187499999997
7,2006-04-10,53.62620833333333,477.6666666666667,531.292875
7,2006-04-11,53.191291666666665,480.25,533.4412916666666
7,2006-04-12,52.800041666666665,468.7916666666667,521.5917083333334
7,2006-04-13,49.089375,241.79166666666666,290.88104166666665
7,2006-04-14,50.94245833333333,,50.94245833333333
7,2006-04-15,46.696041666666666,,46.696041666666666
7,2006-04-16,48.93375,,48.93375
7,2006-04-17,50.7715,,50.7715
7,2006-04-18,49.33420833333333,,49.33420833333333
7,2006-04-19,47.83620833333333,,47.83620833333333
7,2006-04-20,47.437875,,47.437875
7,2006-04-21,52.879999999999995,,52.879999999999995
7,2006-04-22,54.68283333333333,,54.68283333333333
7,2006-04-23,51.096125,,51.096125
7,2006-04-24,51.372166666666665,,51.372166666666665
7,2006-04-25,49.612833333333334,,49.612833333333334
7,2006-04-26,52.49220833333334,,52.49220833333334
7,2006-04-27,49.902875,,49.902875
7,2006-04-28,51.942125000000004,,51.942125000000004
7,2006-04-29,52.84758333333334,,52.84758333333334
7,2006-04-30,51.954874999999994,,51.954874999999994
7,2006-05-01,50.907041666666665,0.0,50.907041666666665
7,2006-05-02,50.690958333333334,0.0,50.690958333333334
7,2006-05-03,49.41733333333334,0.0,49.41733333333334
7,2006-05-04,14.854583333333332,0.0,14.854583333333332
7,2006-05-05,0.22579166666666664,0.0,0.22579166666666664
7,2006-05-06,0.21379166666666669,0.0,0.21379166666666669
7,2006-05-07,0.18270833333333333,0.0,0.18270833333333333
7,2006-05-08,0.19375,0.0,0.19375
7,2006-05-09,27.123375,0.0,27.123375
7,2006-05-10,49.97420833333334,0.0,49.97420833333334
7,2006-05-11,50.39304166666667,0.0,50.39304166666667
7,2006-05-12,48.66308333333333,0.0,48.66308333333333
7,2006-05-13,49.0545,0.0,49.0545
7,2006-05-14,50.74333333333333,0.0,50.74333333333333
7,2006-05-15,50.48620833333334,0.0,50.48620833333334
7,2006-05-16,26.25754166666667,0.0,26.25754166666667
7,2006-05-17,35.4125,0.0,35.4125
7,2006-05-18,47.006875,0.0,47.006875
7,2006-05-19,48.94625,0.0,48.94625
7,2006-05-20,47.78666666666667,0.0,47.78666666666667
7,2006-05-21,48.3725,0.0,48.3725
7,2006-05-22,50.21075,0.0,50.21075
7,2006-05-23,49.89983333333333,0.0,49.89983333333333
7,2006-05-24,30.845541666666666,0.0,30.845541666666666
7,2006-05-25,26.654875,0.0,26.654875
7,2006-05-26,50.598958333333336,0.0,50.598958333333336
7,2006-05-27,46.27095833333333,0.0,46.27095833333333
7,2006-05-28,48.35095833333333,0.0,48.35095833333333
7,2006-05-29,48.35116666666667,0.0,48.35116666666667
7,2006-05-30,46.482791666666664,0.0,46.482791666666664
7,2006-05-31,0.3853333333333333,0.0,0.3853333333333333
7,2006-06-01,0.31454166666666666,0.0,0.31454166666666666
7,2006-06-02,26.978916666666667,0.0,26.978916666666667
7,2006-06-03,46.252916666666664,0.0,46.252916666666664
7,2006-06-04,45.686625,0.0,45.686625
7,2006-06-05,46.65625,0.0,46.65625
7,2006-06-06,46.43045833333333,0.0,46.43045833333333
7,2006-06-07,43.55583333333333,0.0,43.55583333333333
7,2006-06-08,47.32475,0.0,47.32475
7,2006-06-09,45.49679166666667,0.0,45.49679166666667
7,2006-06-10,46.923,0.0,46.923
7,2006-06-11,47.026125,0.0,47.026125
7,2006-06-12,32.266416666666665,0.0,32.266416666666665
7,2006-06-13,32.640166666666666,0.0,32.640166666666666
7,2006-06-14,46.61708333333333,0.0,46.61708333333333
7,2006-06-15,38.83479166666667,0.0,38.83479166666667
7,2006-06-16,44.216541666666664,0.0,44.216541666666664
7,2006-06-17,45.16608333333334,0.0,45.16608333333334
7,2006-06-18,44.175666666666665,0.0,44.175666666666665
7,2006-06-19,43.604083333333335,0.0,43.604083333333335
7,2006-06-20,42.18266666666667,0.0,42.18266666666667
7,2006-06-21,44.05654166666667,0.0,44.05654166666667
7,2006-06-22,16.284375,0.0,16.284375
7,2006-06-23,0.3143333333333333,0.0,0.3143333333333333
7,2006-06-24,0.18987500000000002,0.0,0.18987500000000002
7,2006-06-25,0.18620833333333334,0.0,0.18620833333333334
7,2006-06-26,0.1915416666666667,0.0,0.1915416666666667
7,2006-06-27,0.18970833333333334,0.0,0.18970833333333334
7,2006-06-28,0.20091666666666666,0.0,0.20091666666666666
7,2006-06-29,0.24887499999999999,0.0,0.24887499999999999
7,2006-06-30,0.2992916666666667,0.0,0.2992916666666667
7,2006-07-01,0.177625,0.0,0.177625
7,2006-07-02,0.17725,0.0,0.17725
7,2006-07-03,0.19266666666666665,0.0,0.19266666666666665
7,2006-07-04,0.175875,0.0,0.175875
7,2006-07-05,0.19770833333333335,0.0,0.19770833333333335
7,2006-07-06,0.26916666666666667,0.0,0.26916666666666667
7,2006-07-07,0.2791666666666667,0.0,0.2791666666666667
7,2006-07-08,0.18975,0.0,0.18975
7,2006-07-09,0.18491666666666665,0.0,0.18491666666666665
7,2006-07-10,8.07375,0.0,8.07375
7,2006-07-11,0.2794583333333333,0.0,0.2794583333333333
7,2006-07-12,0.30554166666666666,0.0,0.30554166666666666
7,2006-07-13,0.39358333333333334,0.0,0.39358333333333334
7,2006-07-14,0.441625,0.0,0.441625
7,2006-07-15,0.2952916666666667,0.0,0.2952916666666667
7,2006-07-16,0.3055,0.0,0.3055
7,2006-07-17,0.28091666666666665,0.0,0.28091666666666665
7,2006-07-18,0.22666666666666668,0.0,0.22666666666666668
7,2006-07-19,0.08070833333333334,0.0,0.08070833333333334
7,2006-07-20,0.22466666666666668,0.0,0.22466666666666668
7,2006-07-21,1.8704583333333333,0.0,1.8704583333333333
7,2006-07-22,0.17070833333333335,0.0,0.17070833333333335
7,2006-07-23,0.17858333333333332,0.0,0.17858333333333332
7,2006-07-24,0.9836666666666667,0.0,0.9836666666666667
7,2006-07-25,0.30233333333333334,0.0,0.30233333333333334
7,2006-07-26,0.238625,0.0,0.238625
7,2006-07-27,14.920625000000001,0.0,14.920625000000001
7,2006-07-28,43.235458333333334,0.0,43.235458333333334
7,2006-07-29,41.61908333333333,0.0,41.61908333333333
7,2006-07-30,40.134625,0.0,40.134625
7,2006-07-31,35.652499999999996,0.0,35.652499999999996
7,2006-08-01,38.324625000000005,0.0,38.324625000000005
7,2006-08-02,23.754416666666668,0.0,23.754416666666668
7,2006-08-03,29.56775,0.0,29.56775
7,2006-08-04,38.01025,0.0,38.01025
7,2006-08-05,39.13091666666667,0.0,39.13091666666667
7,2006-08-06,40.924416666666666,0.0,40.924416666666666
7,2006-08-07,39.816208333333336,0.0,39.816208333333336
7,2006-08-08,39.47325,0.0,39.47325
7,2006-08-09,41.50354166666667,0.0,41.50354166666667
7,2006-08-10,41.265125000000005,0.0,41.265125000000005
7,2006-08-11,42.05883333333333,0.0,42.05883333333333
7,2006-08-12,42.75062500000001,0.0,42.75062500000001
7,2006-08-13,42.26558333333333,0.0,42.26558333333333
7,2006-08-14,41.32320833333333,0.0,41.32320833333333
7,2006-08-15,41.042791666666666,0.0,41.042791666666666
7,2006-08-16,42.5425,0.0,42.5425
7,2006-08-17,44.307125000000006,0.0,44.307125000000006
7,2006-08-18,46.78491666666667,0.0,46.78491666666667
7,2006-08-19,43.70766666666666,0.0,43.70766666666666
7,2006-08-20,41.301375,0.0,41.301375
7,2006-08-21,43.08866666666666,0.0,43.08866666666666
7,2006-08-22,43.874875,0.0,43.874875
7,2006-08-23,42.562916666666666,0.0,42.562916666666666
7,2006-08-24,44.22454166666666,0.0,44.22454166666666
7,2006-08-25,44.543708333333335,0.0,44.543708333333335
7,2006-08-26,46.62258333333333,0.0,46.62258333333333
7,2006-08-27,45.761583333333334,0.0,45.761583333333334
7,2006-08-28,44.0785,0.0,44.0785
7,2006-08-29,45.89991666666666,0.0,45.89991666666666
7,2006-08-30,46.250166666666665,0.0,46.250166666666665
7,2006-08-31,36.793375000000005,0.0,36.793375000000005
7,2006-09-01,49.172875,0.0,49.172875
7,2006-09-02,48.827875,0.0,48.827875
7,2006-09-03,46.556333333333335,0.0,46.556333333333335
7,2006-09-04,46.78033333333334,0.0,46.78033333333334
7,2006-09-05,48.386208333333336,0.0,48.386208333333336
7,2006-09-06,47.11083333333334,0.0,47.11083333333334
7,2006-09-07,46.460791666666665,0.0,46.460791666666665
7,2006-09-08,45.59979166666667,0.0,45.59979166666667
7,2006-09-09,45.08908333333333,0.0,45.08908333333333
7,2006-09-10,47.061,0.0,47.061
7,2006-09-11,49.241375,0.0,49.241375
7,2006-09-12,49.44779166666667,0.0,49.44779166666667
7,2006-09-13,34.48016666666667,0.0,34.48016666666667
7,2006-09-14,0.34850000000000003,0.0,0.34850000000000003
7,2006-09-15,19.440625,0.0,19.440625
7,2006-09-16,29.644166666666667,0.0,29.644166666666667
7,2006-09-17,42.970333333333336,0.0,42.970333333333336
7,2006-09-18,42.578875000000004,0.0,42.578875000000004